Regional Weather Roundup
Issued by NWS

Home | Current Version | Previous Version | Text Only | Print | Product List | Glossary On
Versions: 1 2 3 4 5 6 7 8 9 10 11 12 13 14 15 16 17 18 19 20 21 22 23 24 25 26 27 28 29 30 31 32 33 34 35 36 37 38 39 40 41 42 43 44 45 46 47 48 49 50
000
ASUS45 KCYS 020910
RWRWY

WYOMING REGIONAL WEATHER ROUNDUP
NATIONAL WEATHER SERVICE CHEYENNE WY
300 AM MDT SAT AUG 02 2014

NOTE:  "FAIR" INDICATES FEW OR NO CLOUDS BELOW 12,000 FEET
WITH NO SIGNIFICANT WEATHER AND/OR OBSTRUCTIONS TO VISIBILITY.

WYZ001-021000-
YELLOWSTONE NATIONAL PARK

CITY           SKY/WX    TMP DP  RH WIND       PRES   REMARKS
LK YELLOWSTONE   N/A     43  40  89 NW3       30.45R
W YELLOWSTONE  NOT AVBL

$$
WYZ002>013-054>058-071-098>099-021000-
NORTHERN WYOMING

CITY           SKY/WX    TMP DP  RH WIND       PRES   REMARKS
JACKSON        CLEAR     46  43  87 N6        30.34S
CODY           CLEAR     63  46  55 CALM      30.24R
GREYBULL       MOCLDY    67  48  50 S5        30.16S
WORLAND        MOCLDY    66  46  48 S3        30.19S
SHERIDAN       CLEAR     57  46  66 NE5       30.19R
BUFFALO        CLEAR     64  40  41 W7        30.26R
GILLETTE       CLEAR     54  45  71 S3        30.20R
HULETT         FAIR      61  46  59 MISG      30.20
NEWCASTLE      FAIR      63  43  48 N10       30.17

$$
WYZ014>020-022>026-101>103-021000-
CENTRAL WYOMING

CITY           SKY/WX    TMP DP  RH WIND       PRES   REMARKS
BIG PINEY      PTCLDY    53  44  71 NW7       30.36S
PINEDALE       MOSUNNY   54  41  62 W3        30.36S
DUBOIS         FAIR      48  41  76 W9        30.38S
LANDER         MOCLDY    63  45  51 CALM      30.27F
RIVERTON       MOCLDY    66  44  45 SW6       30.28S
CASPER         CLEAR     53  37  54 CALM      30.25S
DOUGLAS        CLEAR     56  43  61 NW3       30.24R

$$
WYZ021-027>030-104>119-021000-
SOUTHERN WYOMING

CITY           SKY/WX    TMP DP  RH WIND       PRES   REMARKS
EVANSTON       PTCLDY    60  40  47 E6        30.34F
KEMMERER       SUNNY     55  39  54 N10       30.36F
FORT BRIDGER   FAIR      59  45  58 NE5       30.37F
ROCK SPRINGS   CLEAR     61  38  42 E12       30.33R
DIXON          FAIR      53  40  62 E6        30.34R
RAWLINS        CLEAR     51  39  63 N7        30.33S
SARATOGA       FAIR      52  41  66 SE3       30.36S
LARAMIE        CLEAR     47  43  86 E5        30.37R
CHEYENNE       CLEAR     55  47  74 W8        30.31R
TORRINGTON     CLEAR     58  50  75 SE8       30.18R
PINE BLUFFS    FAIR      52  48  87 W6        30.27R

$$



USA.gov is the U.S. government's official web portal to all federal, state and local government web resources and services.